This demonstration page uses our WeatherBlox Daily Observations layout. Learn more.

Left ArrowRight Arrow

Hourly Observations for November 1, 2021

Temp ( °F °C ) Dew Point ( °F °C ) Humidity (%) Winds ( mph kmh ) Pressure ( in mb ) Visibility ( mi km ) Precip ( " mm )
12:53 am 00:53 Clear 18 -7.8 15 -9.4 88 88 E 3 6 30.49 1032 10 16 0.00 0.00
1:53 am 01:53 Clear 20 -6.7 14 -10 78 78 SE 3 6 30.48 1032 10 16 0.00 0.00
2:53 am 02:53 Clear 16 -8.9 12 -11.1 84 84 Calm 30.48 1032 10 16 0.00 0.00
3:53 am 03:53 Clear 16 -8.9 13 -10.6 88 88 Calm 30.47 1032 10 16 0.00 0.00
4:53 am 04:53 Clear 13 -10.6 11 -11.7 92 92 WSW 3 6 30.47 1032 10 16 0.00 0.00
5:53 am 05:53 Clear 12 -11.1 9 -12.8 87 87 SW 5 7 30.47 1032 10 16 0.00 0.00
6:53 am 06:53 Clear 12 -11.1 10 -12.2 92 92 Calm 30.50 1033 10 16 0.00 0.00
7:53 am 07:53 Clear 13 -10.6 10 -12.2 88 88 SSE 5 7 30.50 1033 10 16 0.00 0.00
8:53 am 08:53 Sunny 16 -8.9 12 -11.1 84 84 Calm 30.51 1033 10 16 0.00 0.00
9:53 am 09:53 Sunny 21 -6.1 17 -8.3 85 85 E 3 6 30.50 1033 10 16 0.00 0.00
10:53 am 10:53 Sunny 25 -3.9 20 -6.7 81 81 Calm 30.49 1033 10 16 0.00 0.00
11:53 am 11:53 Sunny 28 -2.2 21 -6.1 75 75 Calm 30.49 1032 10 16 0.00 0.00
12:53 pm 12:53 Sunny 31 -0.6 23 -5 72 72 E 5 7 30.46 1032 10 16 0.00 0.00
1:53 pm 13:53 Sunny 35 1.7 24 -4.4 64 64 E 6 9 30.43 1031 10 16 0.00 0.00
2:53 pm 14:53 Sunny 38 3.3 25 -3.9 60 60 E 7 11 30.42 1030 10 16 0.00 0.00
3:53 pm 15:53 Sunny 38 3.3 26 -3.3 62 62 E 8 13 30.40 1029 10 16 0.00 0.00
4:53 pm 16:53 Sunny 38 3.3 24 -4.4 57 57 E 9 15 30.39 1029 10 16 0.00 0.00
5:53 pm 17:53 Sunny 34 1.1 25 -3.9 70 70 E 9 15 30.38 1029 10 16 0.00 0.00
6:53 pm 18:53 Clear 31 -0.6 24 -4.4 76 76 ENE 13 20 30.37 1028 10 16 0.00 0.00
7:53 pm 19:53 Clear 28 -2.2 22 -5.6 78 78 ENE 10 17 30.36 1028 10 16 0.00 0.00
8:53 pm 20:53 Clear 25 -3.9 21 -6.1 85 85 E 5 7 30.35 1028 10 16 0.00 0.00
9:53 pm 21:53 Clear 23 -5 19 -7.2 85 85 Calm 30.33 1027 10 16 0.00 0.00
10:53 pm 22:53 Clear 21 -6.1 17 -8.3 85 85 E 5 7 30.32 1027 10 16 0.00 0.00
11:53 pm 23:53 Clear 19 -7.2 16 -8.9 88 88 Calm 30.32 1027 10 16 0.00 0.00

Powered by AerisWeather